カタログに戻る

SL-14 DEB

LostPO
NORAD 45329·DEBRIS·🇷🇺 Russia

打ち上げ Aug 15, 1991 から Plesetsk Cosmodrome

Loading…

次のパス (今後24時間)

TLE

古いSource: Space-Track

元期: Mar 13, 2020, 02:15 UTC

1 45329U 91056BT  20073.09399242 -.00168790 +00000-0 -38494+0 0  9994
2 45329 082.7234 314.5863 0280633 052.7301 309.9057 13.13702509001444

AllMySatでSL-14 DEBをリアルタイム追跡

Download on the App Store